Location: G�ndlingen
(48.0142°N, 7.6396°E)
Time: 02:20:06
(UTC+00:00)

Cosmos 1743 Rocket - Pass Details

Date: 05 July 2020
Orbit: 605 x 631 km, 82.6° (Epoch: 04 August)

Event Time Altitude Azimuth Distance (km) Brightness Sun altitude
Exits shadow 23:12:35 30° 123° (ESE) 1,090 4.5 -19.2°
Maximum altitude 23:13:41 35° 91° (E) 984 4.5 -19.2°
Drops below altitude 10° 23:17:39 10° 26° (NNE) 1,972 7.0 -19.2°
Sets 23:20:00 0° 17° (NNE) 2,885 8.3 -19.3°
